Wind_Speed
11 11 12 12 12 13 14 14 15 15 15 16 16 18 19 19 18 18 19 21 23 25 25 24 22 21 21 21 20 20 20 21 21 20 20 19 18 16 15 14 13 12
11 11 12 11 11 12 13 14 15 15 15 16 16 17 18 18 18 18 19 20 21 23 23 23 22 21 21 21 21 21 21 22 22 21 20 19 19 17 16 15 14 12
12 12 12 11 11 12 13 14 15 15 16 16 16 16 16 17 17 18 18 19 20 21 21 21 21 21 21 21 21 21 22 22 22 21 20 20 20 19 18 16 15 13
12 13 12 11 11 12 13 14 15 16 17 17 17 16 16 15 16 17 18 19 19 20 20 20 21 22 22 22 21 21 22 23 23 22 21 21 21 21 20 18 16 15
14 13 11 10 11 12 13 14 15 16 17 18 18 17 15 14 15 17 18 19 20 20 20 20 21 22 22 22 22 22 23 23 23 23 22 22 23 23 22 20 18 17
16 14 12 10 10 12 13 14 14 16 17 18 19 18 16 15 15 16 18 19 20 20 20 21 21 22 22 23 23 23 23 23 24 23 22 23 24 24 23 22 21 20
17 15 13 12 11 11 13 14 14 14 16 17 18 18 17 16 15 16 18 19 20 20 21 21 22 22 22 22 23 23 23 24 24 23 22 23 24 24 24 24 24 23
16 14 14 14 13 11 12 13 14 14 14 15 16 18 18 17 16 16 17 19 20 20 21 21 22 22 22 22 22 23 23 24 24 23 22 23 24 25 25 25 25 24
17 15 15 15 15 13 12 13 14 14 14 15 16 17 17 17 17 17 17 19 20 21 21 21 22 22 23 23 23 23 24 24 24 23 23 23 24 25 26 26 26 25
19 18 17 17 17 16 15 14 14 15 15 15 15 16 17 18 18 17 17 18 19 21 22 22 22 22 23 23 23 24 25 25 25 24 23 24 24 26 26 26 26 26
21 20 18 19 19 18 17 16 15 15 16 16 15 15 17 18 18 18 18 18 19 20 22 23 23 23 23 24 24 25 25 26 25 25 24 24 25 26 26 26 26 26
21 21 20 21 22 21 19 17 17 17 18 19 18 17 17 18 18 18 18 18 19 20 21 22 23 24 24 24 24 25 26 26 26 26 26 25 26 26 26 26 26 26
21 21 22 22 22 22 20 19 20 21 22 22 21 19 18 18 18 18 17 18 19 20 21 22 23 24 24 25 25 25 26 27 28 28 27 26 26 26 26 26 26 26
20 21 21 21 21 22 23 22 22 23 24 25 23 21 20 19 18 17 17 17 18 19 21 22 22 23 24 26 27 27 28 28 29 29 28 28 27 27 27 27 26 27
20 20 20 19 20 22 24 23 24 25 25 24 23 22 21 20 19 18 17 17 18 19 20 21 22 23 25 26 27 28 28 29 30 30 30 29 28 28 28 27 27 27
17 19 19 19 20 20 20 21 21 21 21 20 21 21 20 20 20 19 19 19 19 20 21 22 23 23 24 25 26 27 28 29 30 31 30 29 28 28 28 27 27 27
14 16 17 19 19 18 17 18 18 18 18 19 19 19 19 20 20 20 20 20 21 22 23 24 25 25 25 25 27 28 29 29 30 30 29 29 29 29 29 28 28 28
12 13 16 18 18 17 16 16 17 17 17 17 16 17 18 19 18 18 19 19 20 23 25 26 27 27 28 29 30 30 30 29 28 28 27 28 29 30 30 30 29 28
10 12 14 15 16 16 16 16 15 15 14 12 12 14 16 17 17 17 17 17 17 18 21 25 27 29 31 32 32 31 30 29 28 28 28 29 30 31 32 33 32 31
12 12 12 12 13 14 15 15 13 13 13 11 10 11 14 16 17 16 15 15 15 16 17 20 24 29 33 34 34 33 32 31 29 28 29 30 31 32 33 34 35 35
13 13 14 14 13 12 12 12 11 11 11 11 10 12 14 16 16 16 15 15 15 16 17 18 21 24 28 31 32 33 33 32 31 30 30 32 33 33 33 34 36 37
14 15 15 14 14 13 11 11 11 11 11 11 12 14 15 15 16 16 16 16 16 16 17 18 20 23 25 25 25 26 29 31 30 31 33 34 34 34 35 35 36 37
14 14 13 12 11 11 11 10 10 10 10 11 12 13 13 13 14 14 15 16 16 17 17 18 20 22 23 22 20 20 23 25 25 25 27 28 28 28 29 30 30 32
10 9 8 7 8 9 9 10 9 9 9 10 10 11 11 11 11 12 12 13 14 15 16 17 19 20 20 19 17 16 17 19 21 21 21 22 22 23 22 22 23 25
11 10 10 9 8 7 7 8 9 10 10 10 10 10 10 10 11 11 11 12 12 13 14 16 18 19 19 18 17 16 15 16 19 20 21 22 21 21 22 22 23 25
15 13 11 9 9 9 9 10 11 11 11 12 12 12 12 12 13 13 13 13 14 14 15 16 17 18 19 18 17 16 15 16 17 19 20 21 22 22 23 24 25 26
Wind_Direction
249 245 246 243 239 238 237 238 238 236 234 234 235 237 242 245 243 236 231 227 226 226 227 229 231 230 228 228 231 232 233 235 235 235 236 237 238 238 238 238 242 247
268 256 251 247 243 239 237 236 237 239 238 237 237 236 239 245 246 242 236 232 228 227 226 227 229 230 229 230 232 234 236 237 237 237 236 237 238 237 236 238 242 247
272 265 258 251 247 243 240 238 238 239 240 241 243 241 238 240 243 243 240 237 232 229 228 227 228 230 231 232 234 236 237 238 239 239 238 239 239 237 236 236 239 245
254 256 255 252 250 248 242 239 238 239 240 241 243 244 242 240 239 240 240 239 236 233 230 229 230 232 232 234 235 237 238 240 241 240 239 239 239 238 237 236 238 244
253 249 249 249 251 251 247 241 238 239 240 241 243 244 245 242 238 238 239 238 237 236 234 231 232 234 235 236 236 238 240 242 243 242 241 240 240 239 239 240 241 245
262 256 248 245 247 249 250 247 243 241 242 243 244 244 243 242 239 237 238 238 238 237 235 235 235 235 235 236 237 238 240 242 244 244 242 241 241 241 242 244 245 248
257 256 249 246 248 250 253 254 251 247 245 245 246 246 245 243 240 237 237 239 239 238 236 236 238 238 237 237 239 240 242 242 242 243 242 242 243 244 246 247 249 250
249 251 249 247 248 250 254 258 257 254 250 247 246 247 246 243 241 239 237 238 241 240 238 237 239 242 243 244 243 243 244 244 244 243 242 243 245 247 248 249 251 253
243 244 246 246 245 246 249 254 258 258 254 250 247 247 248 244 240 238 237 237 240 242 242 240 239 242 245 248 248 248 247 247 247 246 245 245 246 248 250 251 252 254
240 241 242 240 241 243 245 246 252 256 255 252 249 248 248 246 242 238 235 235 237 241 245 245 243 242 244 247 249 251 251 250 249 249 248 248 247 249 251 252 253 254
239 238 238 237 237 240 243 243 246 251 254 254 252 249 247 246 245 242 238 235 234 236 240 244 245 244 244 245 247 250 252 253 252 251 251 251 251 251 252 253 254 254
235 235 240 238 234 235 239 242 245 247 250 251 251 250 247 246 245 243 242 240 238 237 238 241 243 244 245 246 246 248 250 252 252 252 251 251 252 253 254 254 254 254
231 236 242 241 237 237 239 242 245 246 247 247 247 248 248 247 246 245 244 243 243 243 243 242 243 244 245 246 246 247 247 248 249 249 249 249 249 251 252 253 253 253
234 241 245 246 245 243 240 241 244 244 243 242 241 242 244 246 249 249 249 249 249 249 249 249 249 249 248 247 246 246 245 245 245 245 245 244 244 246 248 250 252 253
236 241 244 241 239 239 240 244 246 243 240 239 238 240 241 244 247 250 252 254 255 256 256 255 256 256 255 254 252 251 249 247 246 245 244 243 242 243 244 247 250 253
233 237 239 238 238 243 249 254 254 249 246 247 246 247 247 246 247 250 252 255 257 260 262 262 261 261 261 262 263 262 260 257 255 253 253 253 252 252 252 252 252 254
232 235 240 242 244 249 255 258 257 251 245 245 248 254 257 255 252 252 254 256 258 259 261 264 266 265 265 264 263 261 260 259 259 258 259 262 263 264 263 263 262 261
236 239 241 244 245 248 253 257 255 247 240 239 246 256 262 262 262 261 261 262 263 261 259 261 263 264 263 261 260 260 260 260 261 262 262 263 264 265 264 263 265 266
243 239 237 241 247 250 252 254 253 248 244 242 250 259 264 268 270 271 272 272 274 271 264 261 261 261 261 261 261 263 264 263 263 263 263 262 262 262 261 262 265 267
246 243 241 245 252 256 258 258 256 252 250 253 263 269 271 273 274 276 282 285 288 285 278 270 263 260 260 260 261 263 266 265 265 265 264 263 261 260 260 261 263 264
255 255 253 253 257 262 268 270 267 263 265 275 282 278 275 276 278 282 288 291 293 293 289 282 273 266 263 262 262 264 267 268 267 265 265 264 262 260 260 261 262 261
265 266 263 261 260 262 270 280 283 285 291 294 291 284 283 286 290 291 291 290 290 291 290 286 281 275 273 272 273 275 277 277 273 268 266 266 266 264 263 263 263 261
276 273 267 266 269 273 285 301 308 307 302 298 295 294 297 301 302 301 297 292 290 290 290 289 286 283 282 284 286 286 286 287 286 280 276 275 276 275 272 270 271 269
293 283 280 291 306 308 311 315 313 302 290 287 290 297 303 308 309 307 304 299 294 291 288 287 286 286 286 287 287 284 283 286 289 292 292 290 290 290 287 285 284 282
328 334 340 342 333 317 305 297 290 285 283 283 287 293 299 302 303 302 300 297 293 289 287 285 285 286 288 288 286 281 277 277 280 285 289 290 292 293 293 292 290 286
327 337 342 332 310 294 287 284 283 286 289 291 293 295 295 295 293 291 289 288 287 286 285 285 286 287 288 289 288 283 278 274 275 278 281 285 288 288 288 287 286 285
Height
5902 5902 5903 5903 5904 5904 5905 5906 5907 5907 5907 5908 5909 5910 5910 5911 5911 5912 5912 5913 5914 5914 5915 5916 5917 5918 5919 5920 5922 5923 5924 5924 5925 5926 5928 5929 5930 5931 5932 5932 5933 5933
5902 5902 5901 5902 5902 5903 5904 5905 5906 5906 5907 5907 5907 5908 5909 5910 5911 5911 5912 5912 5913 5914 5914 5915 5916 5917 5918 5919 5920 5921 5922 5923 5924 5925 5926 5927 5928 5930 5930 5931 5931 5932
5900 5900 5900 5900 5900 5901 5903 5904 5904 5905 5906 5906 5906 5907 5908 5909 5910 5911 5911 5911 5912 5913 5914 5915 5915 5916 5917 5918 5919 5920 5921 5922 5922 5924 5925 5926 5927 5928 5929 5929 5930 5930
5897 5897 5898 5898 5899 5900 5901 5902 5903 5903 5904 5905 5905 5905 5906 5907 5908 5909 5910 5911 5911 5912 5912 5913 5914 5915 5916 5916 5918 5919 5919 5920 5921 5922 5923 5924 5925 5926 5927 5928 5928 5928
5896 5896 5897 5897 5898 5898 5899 5900 5901 5901 5902 5903 5903 5904 5904 5905 5906 5907 5908 5909 5910 5910 5911 5912 5913 5913 5914 5915 5916 5917 5917 5918 5919 5920 5921 5922 5923 5924 5925 5926 5927 5927
5896 5896 5896 5896 5896 5897 5897 5898 5899 5899 5900 5901 5901 5902 5902 5903 5904 5905 5906 5907 5908 5909 5910 5911 5911 5912 5912 5913 5914 5914 5915 5916 5916 5917 5919 5919 5920 5921 5923 5924 5925 5925
5894 5894 5895 5895 5895 5895 5895 5896 5897 5898 5898 5899 5899 5900 5900 5901 5902 5902 5904 5905 5906 5907 5908 5909 5910 5910 5911 5912 5912 5913 5913 5914 5914 5915 5916 5917 5918 5919 5920 5921 5922 5923
5891 5891 5892 5893 5894 5894 5894 5894 5895 5896 5896 5897 5898 5898 5899 5899 5900 5900 5901 5902 5904 5905 5906 5907 5908 5909 5910 5910 5911 5911 5911 5911 5912 5913 5914 5915 5916 5917 5917 5918 5920 5920
5888 5888 5889 5890 5892 5892 5892 5892 5893 5894 5894 5895 5896 5896 5897 5897 5898 5898 5899 5899 5901 5902 5904 5905 5905 5906 5907 5908 5909 5909 5909 5909 5910 5911 5912 5912 5913 5913 5914 5915 5916 5917
5886 5886 5887 5888 5889 5890 5890 5890 5891 5891 5892 5893 5894 5894 5895 5895 5895 5896 5896 5897 5898 5899 5901 5902 5903 5903 5904 5906 5907 5907 5907 5908 5908 5908 5909 5910 5910 5910 5911 5912 5913 5914
5884 5885 5885 5885 5886 5888 5888 5888 5888 5889 5890 5890 5891 5892 5892 5893 5893 5894 5894 5895 5896 5896 5897 5899 5899 5900 5901 5902 5903 5904 5905 5905 5905 5906 5907 5907 5907 5907 5907 5908 5909 5910
5882 5883 5883 5883 5884 5885 5886 5886 5886 5886 5887 5887 5888 5888 5889 5890 5891 5892 5892 5893 5893 5894 5894 5896 5896 5897 5898 5899 5900 5901 5901 5902 5902 5903 5903 5904 5904 5904 5905 5905 5906 5906
5880 5880 5880 5880 5882 5883 5884 5884 5883 5883 5883 5883 5884 5884 5886 5887 5888 5889 5890 5891 5891 5891 5892 5893 5894 5895 5895 5896 5897 5897 5898 5898 5899 5899 5899 5900 5901 5901 5902 5902 5903 5903
5877 5877 5877 5879 5881 5881 5880 5880 5879 5878 5878 5878 5879 5880 5882 5883 5885 5887 5888 5888 5889 5889 5890 5890 5891 5892 5893 5893 5894 5894 5894 5895 5895 5895 5896 5896 5897 5897 5898 5899 5900 5900
5874 5874 5875 5876 5877 5877 5877 5876 5875 5875 5876 5878 5878 5879 5879 5880 5881 5883 5884 5885 5886 5887 5888 5889 5889 5890 5890 5891 5891 5892 5892 5893 5893 5893 5893 5893 5893 5894 5894 5895 5896 5897
5872 5872 5873 5874 5875 5875 5875 5876 5875 5876 5879 5880 5880 5880 5879 5879 5879 5880 5880 5881 5882 5884 5885 5886 5887 5888 5888 5889 5890 5890 5891 5891 5891 5892 5893 5893 5894 5894 5894 5894 5894 5894
5870 5871 5872 5873 5874 5874 5874 5874 5875 5876 5877 5877 5877 5878 5879 5879 5879 5879 5878 5878 5879 5880 5882 5883 5884 5886 5886 5887 5886 5886 5886 5887 5888 5890 5892 5893 5894 5894 5894 5894 5893 5893
5870 5871 5872 5873 5873 5873 5872 5873 5873 5873 5873 5874 5875 5877 5878 5878 5878 5878 5878 5877 5876 5877 5878 5880 5881 5882 5882 5882 5881 5881 5883 5884 5886 5888 5889 5889 5889 5889 5890 5890 5890 5890
5870 5871 5871 5871 5871 5870 5870 5871 5872 5872 5872 5873 5874 5875 5877 5877 5877 5877 5877 5876 5875 5875 5876 5877 5878 5878 5877 5877 5877 5878 5881 5883 5884 5885 5885 5885 5885 5885 5885 5886 5886 5886
5870 5870 5870 5870 5869 5869 5869 5870 5871 5872 5872 5872 5872 5873 5876 5877 5877 5877 5876 5875 5874 5874 5874 5874 5874 5874 5873 5873 5874 5876 5877 5880 5882 5883 5883 5882 5881 5881 5881 5881 5881 5881
5868 5869 5869 5869 5869 5869 5869 5870 5871 5872 5872 5872 5872 5874 5876 5877 5876 5876 5874 5873 5873 5873 5873 5872 5872 5870 5870 5871 5872 5874 5875 5876 5878 5879 5879 5878 5877 5876 5876 5876 5876 5876
5868 5868 5868 5868 5869 5869 5869 5870 5870 5870 5871 5872 5873 5874 5875 5875 5874 5873 5872 5871 5871 5871 5871 5870 5869 5868 5868 5870 5872 5874 5873 5873 5873 5874 5874 5874 5873 5873 5872 5872 5872 5872
5867 5867 5868 5868 5869 5869 5869 5869 5869 5869 5870 5871 5873 5873 5872 5872 5871 5870 5870 5870 5869 5869 5869 5868 5867 5866 5867 5869 5872 5873 5872 5870 5869 5869 5870 5870 5870 5869 5869 5869 5868 5868
5868 5868 5868 5868 5867 5867 5868 5869 5869 5870 5871 5872 5872 5871 5870 5870 5869 5869 5868 5868 5868 5867 5867 5866 5865 5865 5866 5868 5870 5871 5870 5868 5867 5867 5866 5866 5866 5866 5865 5865 5865 5864
5867 5867 5865 5865 5865 5867 5868 5869 5870 5870 5870 5870 5869 5868 5868 5867 5867 5867 5867 5866 5866 5865 5865 5864 5863 5863 5863 5865 5866 5867 5867 5866 5865 5865 5864 5863 5863 5862 5862 5861 5861 5860
5864 5863 5863 5863 5864 5865 5866 5867 5868 5867 5867 5866 5865 5865 5865 5865 5865 5864 5864 5864 5864 5863 5862 5861 5861 5860 5860 5860 5861 5862 5863 5863 5862 5861 5861 5860 5859 5859 5858 5857 5857 5857